Change the Weather History Date:

Saturday, July 13, 2013

  Actual Average Record
Temperature  
Mean Temperature 74 °F -  
Max Temperature 80 °F 78 °F 94 °F (1979)
Min Temperature 69 °F 63 °F 57 °F (1990)
Cooling Degree Days 8    
Growing Degree Days 24 (Base 50)    
Moisture  
Dew Point 69 °F    
Average Humidity 87    
Maximum Humidity 94    
Minimum Humidity 78    
Precipitation  
Precipitation 0.07 in - - ()
Sea Level Pressure  
Sea Level Pressure 30.25 in    
Wind  
Wind Speed 5 mph (ENE)    
Max Wind Speed 9 mph    
Max Gust Speed 17 mph    
Visibility 7 miles    
Events Rain    
Averages and records for this station are not official NWS values.
T = Trace of Precipitation, MM = Missing Value Source: NWS Daily Summary

Daily Weather History Graph

Daily Weather History Graph

Search for Another Location

Airport or City:

Trip Planner

Search our weather history database for the weather conditions in past years. The results will help you decide how hot, cold, wet, or windy it might be!

Date:

Astronomy

Jul. 13, 2013 Rise Set
Actual Time 5:30 AM EDT 8:24 PM EDT
Civil Twilight 4:57 AM EDT 8:56 PM EDT
Nautical Twilight 4:15 AM EDT 9:38 PM EDT
Astronomical Twilight 3:27 AM EDT 10:26 PM EDT
Moon 10:47 AM EDT (7/13) 10:59 PM EDT (7/13)
Length of Visible Light 15h 59m
Length of Day
14h 54m
Waxing Crescent, 25% of the Moon is Illuminated
Jul 13
Waxing Crescent
Jul 15
First Quarter
Jul 22
Full
Jul 29
Last Quarter
Aug 6
New

Hourly Weather History & Observations

Time (EDT) Temp. Dew Point Humidity Pressure Visibility Wind Dir Wind Speed Gust Speed Precip Events Conditions
12:53 AM 69.1 °F 63.0 °F 81% 30.15 in 10.0 mi NNE 4.6 mph - N/A   Overcast
1:53 AM 70.0 °F 64.0 °F 81% 30.16 in 10.0 mi Calm Calm - N/A   Overcast
2:53 AM 70.0 °F 64.0 °F 81% 30.16 in 10.0 mi NE 6.9 mph - N/A   Overcast
3:32 AM 69.8 °F 64.4 °F 83% 30.16 in 10.0 mi NE 6.9 mph - N/A   Overcast
3:53 AM 69.1 °F 64.9 °F 87% 30.17 in 8.0 mi NE 6.9 mph - N/A   Overcast
4:53 AM 69.1 °F 64.9 °F 87% 30.18 in 10.0 mi NE 4.6 mph - N/A   Overcast
5:53 AM 70.0 °F 66.0 °F 87% 30.19 in 4.0 mi NE 5.8 mph - N/A   Overcast
6:53 AM 70.0 °F 66.0 °F 87% 30.22 in 4.0 mi NNE 6.9 mph - 0.00 in   Overcast
7:53 AM 70.0 °F 66.9 °F 90% 30.23 in 2.5 mi NNE 8.1 mph - 0.02 in   Overcast
8:23 AM 69.8 °F 66.2 °F 88% 30.24 in 2.5 mi North 5.8 mph - 0.00 in Rain Light Rain
8:53 AM 69.1 °F 66.0 °F 90% 30.26 in 3.0 mi North 5.8 mph - 0.01 in Rain Rain
9:23 AM 69.8 °F 66.2 °F 88% 30.26 in 2.0 mi North 8.1 mph - 0.01 in Rain Light Rain
9:53 AM 71.1 °F 68.0 °F 90% 30.26 in 3.0 mi North 5.8 mph - 0.01 in   Overcast
10:53 AM 73.0 °F 69.1 °F 87% 30.27 in 3.0 mi NE 3.5 mph - 0.01 in Rain Light Rain
11:53 AM 73.9 °F 70.0 °F 87% 30.27 in 5.0 mi East 3.5 mph - 0.01 in   Overcast
12:53 PM 73.9 °F 70.0 °F 87% 30.27 in 5.0 mi Variable 5.8 mph - 0.00 in   Overcast
1:53 PM 73.0 °F 69.1 °F 87% 30.27 in 3.0 mi East 9.2 mph 17.3 mph 0.00 in Rain Light Rain
2:53 PM 78.1 °F 72.0 °F 81% 30.27 in 10.0 mi East 9.2 mph - 0.00 in   Overcast
3:04 PM 78.8 °F 71.6 °F 78% 30.27 in 10.0 mi East 5.8 mph - N/A   Overcast
3:53 PM 77.0 °F 72.0 °F 84% 30.27 in 6.0 mi East 8.1 mph - 0.00 in   Overcast
4:53 PM 77.0 °F 71.1 °F 82% 30.26 in 10.0 mi ESE 8.1 mph - N/A   Overcast
5:53 PM 75.9 °F 71.1 °F 85% 30.27 in 10.0 mi ESE 6.9 mph - N/A   Mostly Cloudy
6:49 PM 75.2 °F 71.6 °F 89% 30.27 in 10.0 mi East 6.9 mph - N/A   Overcast
6:53 PM 75.0 °F 71.1 °F 87% 30.28 in 10.0 mi ESE 6.9 mph - N/A   Overcast
7:38 PM 75.2 °F 71.6 °F 89% 30.27 in 10.0 mi East 5.8 mph - N/A   Overcast
7:53 PM 75.0 °F 71.1 °F 87% 30.27 in 10.0 mi East 4.6 mph - N/A   Overcast
8:53 PM 75.0 °F 72.0 °F 90% 30.28 in 10.0 mi ESE 4.6 mph - 0.00 in   Overcast
9:04 PM 73.4 °F 71.6 °F 94% 30.28 in 9.0 mi East 5.8 mph - N/A   Overcast
9:15 PM 73.4 °F 71.6 °F 94% 30.28 in 9.0 mi ESE 5.8 mph - N/A   Overcast
9:43 PM 73.4 °F 71.6 °F 94% 30.28 in 7.0 mi ESE 6.9 mph - N/A   Overcast
9:53 PM 73.9 °F 71.1 °F 91% 30.29 in 6.0 mi East 6.9 mph - N/A   Overcast
10:10 PM 73.4 °F 71.6 °F 94% 30.29 in 6.0 mi East 3.5 mph - N/A   Overcast
10:53 PM 75.0 °F 72.0 °F 90% 30.29 in 4.0 mi ESE 4.6 mph - 0.01 in   Overcast
11:53 PM 75.0 °F 73.0 °F 94% 30.30 in 4.0 mi Calm Calm - N/A   Overcast